Location: Unspecified
(52.4292°N, 19.3359°E)
Time: 23:25:43
(UTC+02:00)

SR - Pass Details

Date: 31 May 2024
Orbit: 580 x 858 km, 66.7° (Epoch: 12 June)

Event Time Altitude Azimuth Distance (km) Brightness Sun altitude
Rises 21:35:01 0° 314° (NW) 2,960 ? -5.3°
Reaches altitude 10° 21:38:18 10° 338° (NNW) 1,998 ? -5.6°
Maximum altitude 21:40:54 15° 13° (NNE) 1,660 ? -5.9°
Drops below altitude 10° 21:43:25 10° 49° (NE) 1,936 ? -6.1°
Sets 21:46:31 0° 74° (ENE) 2,814 ? -6.4°
